Time,TemperatureF,DewpointF,PressureIn,WindDirection,WindDirectionDegrees,WindSpeedMPH,WindSpeedGustMPH,Humidity,HourlyPrecipIn,Conditions,Clouds,dailyrainin,SoftwareType,DateUTC
2013-01-23 00:00:00,32.0,9.3,30.24,WNW,284,4.0,13.0,38,0.00,,,0.00,WeatherCatV1.11B39,2013-01-23 05:00:00,
2013-01-23 00:01:00,32.0,9.9,30.24,WNW,294,6.0,6.0,39,0.00,,,0.00,WeatherCatV1.11B39,2013-01-23 05:01:00,
2013-01-23 00:06:00,32.1,10.0,30.24,WNW,293,7.0,11.0,39,0.00,,,0.00,WeatherCatV1.11B39,2013-01-23 05:06:00,
2013-01-23 00:11:00,32.1,10.5,30.24,West,266,4.0,12.0,40,0.00,,,0.00,WeatherCatV1.11B39,2013-01-23 05:11:00,
2013-01-23 00:16:00,32.2,10.6,30.24,WNW,291,7.0,7.0,40,0.00,,,0.00,WeatherCatV1.11B39,2013-01-23 05:16:00,
2013-01-23 00:21:00,32.2,10.6,30.24,West,259,4.0,7.0,40,0.00,,,0.00,WeatherCatV1.11B39,2013-01-23 05:21:00,
2013-01-23 00:26:00,32.3,11.3,30.24,WSW,248,10.0,13.0,41,0.00,,,0.00,WeatherCatV1.11B39,2013-01-23 05:26:00,
2013-01-23 00:31:00,32.5,10.3,30.24,West,279,6.0,13.0,39,0.00,,,0.00,WeatherCatV1.11B39,2013-01-23 05:31:00,
2013-01-23 00:36:00,32.6,11.0,30.24,WNW,287,9.0,14.0,40,0.00,,,0.00,WeatherCatV1.11B39,2013-01-23 05:36:00,
2013-01-23 00:41:00,32.6,10.4,30.25,WNW,288,13.0,16.0,39,0.00,,,0.00,WeatherCatV1.11B39,2013-01-23 05:41:00,
2013-01-23 00:46:00,32.5,10.3,30.25,WSW,252,5.0,11.0,39,0.00,,,0.00,WeatherCatV1.11B39,2013-01-23 05:46:00,
2013-01-23 00:51:00,32.5,11.4,30.25,West,281,9.0,14.0,41,0.00,,,0.00,WeatherCatV1.11B39,2013-01-23 05:51:00,
2013-01-23 00:56:00,32.5,10.9,30.25,WSW,237,6.0,8.0,40,0.00,,,0.00,WeatherCatV1.11B39,2013-01-23 05:56:00,
2013-01-23 01:01:00,32.4,11.4,30.25,West,263,4.0,6.0,41,0.00,,,0.00,WeatherCatV1.11B39,2013-01-23 06:01:00,
2013-01-23 01:06:00,32.3,11.3,30.25,WSW,252,4.0,8.0,41,0.00,,,0.00,WeatherCatV1.11B39,2013-01-23 06:06:00,
2013-01-23 01:11:00,32.2,11.7,30.25,West,278,5.0,8.0,42,0.00,,,0.00,WeatherCatV1.11B39,2013-01-23 06:11:00,
2013-01-23 01:16:00,32.1,11.1,30.25,West,263,4.0,12.0,41,0.00,,,0.00,WeatherCatV1.11B39,2013-01-23 06:16:00,
2013-01-23 01:21:00,32.1,11.6,30.25,WNW,288,7.0,8.0,42,0.00,,,0.00,WeatherCatV1.11B39,2013-01-23 06:21:00,
2013-01-23 01:26:00,32.1,11.6,30.25,West,263,7.0,12.0,42,0.00,,,0.00,WeatherCatV1.11B39,2013-01-23 06:26:00,
2013-01-23 01:31:00,32.1,11.6,30.25,West,279,5.0,15.0,42,0.00,,,0.00,WeatherCatV1.11B39,2013-01-23 06:31:00,
2013-01-23 01:36:00,32.0,11.5,30.26,WNW,290,11.0,13.0,42,0.00,,,0.00,WeatherCatV1.11B39,2013-01-23 06:36:00,
2013-01-23 01:41:00,32.1,11.1,30.25,WSW,254,6.0,8.0,41,0.00,,,0.00,WeatherCatV1.11B39,2013-01-23 06:41:00,
2013-01-23 01:46:00,32.1,11.1,30.25,WSW,252,8.0,14.0,41,0.00,,,0.00,WeatherCatV1.11B39,2013-01-23 06:46:00,
2013-01-23 01:51:00,32.1,11.1,30.25,WSW,244,18.0,20.0,41,0.00,,,0.00,WeatherCatV1.11B39,2013-01-23 06:51:00,
2013-01-23 01:56:00,32.0,10.4,30.25,WNW,283,8.0,18.0,40,0.00,,,0.00,WeatherCatV1.11B39,2013-01-23 06:56:00,
2013-01-23 02:01:00,32.0,11.0,30.25,WNW,284,7.0,13.0,41,0.00,,,0.00,WeatherCatV1.11B39,2013-01-23 07:01:00,
2013-01-23 02:06:00,31.9,10.9,30.25,West,265,7.0,15.0,41,0.00,,,0.00,WeatherCatV1.11B39,2013-01-23 07:06:00,
2013-01-23 02:11:00,31.8,10.8,30.25,West,271,8.0,19.0,41,0.00,,,0.00,WeatherCatV1.11B39,2013-01-23 07:11:00,
2013-01-23 02:16:00,31.7,11.3,30.25,West,259,6.0,12.0,42,0.00,,,0.00,WeatherCatV1.11B39,2013-01-23 07:16:00,
2013-01-23 02:21:00,31.6,11.2,30.25,West,280,9.0,13.0,42,0.00,,,0.00,WeatherCatV1.11B39,2013-01-23 07:21:00,
2013-01-23 02:25:00,31.6,11.2,30.25,West,265,4.0,12.0,42,0.00,,,0.00,WeatherCatV1.11B39,2013-01-23 07:25:00,
2013-01-23 02:30:00,31.5,11.1,30.25,WSW,247,3.0,12.0,42,0.00,,,0.00,WeatherCatV1.11B39,2013-01-23 07:30:00,
2013-01-23 02:35:00,31.4,11.0,30.25,West,280,9.0,9.0,42,0.00,,,0.00,WeatherCatV1.11B39,2013-01-23 07:35:00,
2013-01-23 02:40:00,31.4,11.5,30.25,SW,225,3.0,5.0,43,0.00,,,0.00,WeatherCatV1.11B39,2013-01-23 07:40:00,
2013-01-23 02:45:00,31.3,11.4,30.25,SW,218,3.0,7.0,43,0.00,,,0.00,WeatherCatV1.11B39,2013-01-23 07:45:00,
2013-01-23 02:50:00,31.2,11.9,30.26,West,272,4.0,6.0,44,0.00,,,0.00,WeatherCatV1.11B39,2013-01-23 07:50:00,
2013-01-23 02:55:00,31.2,11.9,30.26,SW,228,2.0,6.0,44,0.00,,,0.00,WeatherCatV1.11B39,2013-01-23 07:55:00,
2013-01-23 03:00:00,31.1,12.3,30.26,West,276,2.0,6.0,45,0.00,,,0.00,WeatherCatV1.11B39,2013-01-23 08:00:00,
2013-01-23 03:05:00,31.0,11.7,30.25,West,277,8.0,8.0,44,0.00,,,0.00,WeatherCatV1.11B39,2013-01-23 08:05:00,
2013-01-23 03:10:00,31.0,11.7,30.25,SW,229,2.0,3.0,44,0.00,,,0.00,WeatherCatV1.11B39,2013-01-23 08:10:00,
2013-01-23 03:15:00,31.0,11.7,30.25,West,279,4.0,7.0,44,0.00,,,0.00,WeatherCatV1.11B39,2013-01-23 08:15:00,
2013-01-23 03:20:00,31.0,12.2,30.25,SW,224,4.0,4.0,45,0.00,,,0.00,WeatherCatV1.11B39,2013-01-23 08:20:00,
2013-01-23 03:25:00,30.9,11.6,30.25,SW,228,2.0,6.0,44,0.00,,,0.00,WeatherCatV1.11B39,2013-01-23 08:25:00,
2013-01-23 03:30:00,30.8,11.5,30.25,SW,227,0.0,2.0,44,0.00,,,0.00,WeatherCatV1.11B39,2013-01-23 08:30:00,
2013-01-23 03:35:00,30.7,11.9,30.25,SW,227,3.0,3.0,45,0.00,,,0.00,WeatherCatV1.11B39,2013-01-23 08:35:00,
2013-01-23 03:40:00,30.7,11.9,30.25,WSW,251,2.0,3.0,45,0.00,,,0.00,WeatherCatV1.11B39,2013-01-23 08:40:00,
2013-01-23 03:45:00,30.7,11.9,30.25,SW,231,5.0,6.0,45,0.00,,,0.00,WeatherCatV1.11B39,2013-01-23 08:45:00,
2013-01-23 03:50:00,30.8,12.0,30.25,West,269,6.0,6.0,45,0.00,,,0.00,WeatherCatV1.11B39,2013-01-23 08:50:00,
2013-01-23 03:55:00,30.7,12.9,30.25,WSW,242,1.0,1.0,47,0.00,,,0.00,WeatherCatV1.11B39,2013-01-23 08:55:00,
2013-01-23 04:00:00,30.7,12.4,30.25,West,279,5.0,6.0,46,0.00,,,0.00,WeatherCatV1.11B39,2013-01-23 09:00:00,
2013-01-23 04:05:00,30.7,12.4,30.25,WSW,252,4.0,8.0,46,0.00,,,0.00,WeatherCatV1.11B39,2013-01-23 09:05:00,
2013-01-23 04:10:00,30.6,12.3,30.25,WSW,254,5.0,7.0,46,0.00,,,0.00,WeatherCatV1.11B39,2013-01-23 09:10:00,
2013-01-23 04:15:00,30.7,12.4,30.25,SW,229,6.0,6.0,46,0.00,,,0.00,WeatherCatV1.11B39,2013-01-23 09:15:00,
2013-01-23 04:20:00,30.6,12.3,30.25,WNW,284,7.0,12.0,46,0.00,,,0.00,WeatherCatV1.11B39,2013-01-23 09:20:00,
2013-01-23 04:25:00,30.8,12.5,30.25,NW,310,6.0,13.0,46,0.00,,,0.00,WeatherCatV1.11B39,2013-01-23 09:25:00,
2013-01-23 04:30:00,30.8,12.5,30.25,West,265,5.0,13.0,46,0.00,,,0.00,WeatherCatV1.11B39,2013-01-23 09:30:00,
2013-01-23 04:35:00,30.9,12.6,30.25,West,270,5.0,10.0,46,0.00,,,0.00,WeatherCatV1.11B39,2013-01-23 09:35:00,
2013-01-23 04:40:00,30.8,12.5,30.25,WNW,287,7.0,13.0,46,0.00,,,0.00,WeatherCatV1.11B39,2013-01-23 09:40:00,
2013-01-23 04:45:00,30.8,12.5,30.25,NW,306,9.0,9.0,46,0.00,,,0.00,WeatherCatV1.11B39,2013-01-23 09:45:00,
2013-01-23 04:50:00,30.7,12.9,30.25,WNW,286,2.0,10.0,47,0.00,,,0.00,WeatherCatV1.11B39,2013-01-23 09:50:00,
2013-01-23 04:55:00,30.7,12.9,30.25,West,276,4.0,12.0,47,0.00,,,0.00,WeatherCatV1.11B39,2013-01-23 09:55:00,
2013-01-23 05:00:00,30.7,12.9,30.25,West,273,5.0,6.0,47,0.00,,,0.00,WeatherCatV1.11B39,2013-01-23 10:00:00,
2013-01-23 05:05:00,30.7,12.9,30.25,SW,225,0.0,6.0,47,0.00,,,0.00,WeatherCatV1.11B39,2013-01-23 10:05:00,
2013-01-23 05:10:00,30.7,12.9,30.25,West,259,1.0,7.0,47,0.00,,,0.00,WeatherCatV1.11B39,2013-01-23 10:10:00,
2013-01-23 05:15:00,30.7,13.4,30.25,WNW,297,5.0,9.0,48,0.00,,,0.00,WeatherCatV1.11B39,2013-01-23 10:15:00,
2013-01-23 05:20:00,30.7,13.4,30.26,SW,226,5.0,6.0,48,0.00,,,0.00,WeatherCatV1.11B39,2013-01-23 10:20:00,
2013-01-23 05:25:00,30.8,13.5,30.25,WSW,239,0.0,4.0,48,0.00,,,0.00,WeatherCatV1.11B39,2013-01-23 10:25:00,
2013-01-23 05:30:00,30.7,13.4,30.25,NW,323,0.0,7.0,48,0.00,,,0.00,WeatherCatV1.11B39,2013-01-23 10:30:00,
2013-01-23 05:35:00,30.7,13.4,30.25,WSW,252,3.0,7.0,48,0.00,,,0.00,WeatherCatV1.11B39,2013-01-23 10:35:00,
2013-01-23 05:40:00,30.8,13.5,30.25,West,267,2.0,3.0,48,0.00,,,0.00,WeatherCatV1.11B39,2013-01-23 10:40:00,
2013-01-23 05:45:00,30.8,13.5,30.25,WNW,284,11.0,11.0,48,0.00,,,0.00,WeatherCatV1.11B39,2013-01-23 10:45:00,
2013-01-23 05:50:00,30.8,13.9,30.25,SW,236,6.0,7.0,49,0.00,,,0.00,WeatherCatV1.11B39,2013-01-23 10:50:00,
2013-01-23 05:55:00,30.9,13.5,30.25,WNW,297,6.0,8.0,48,0.00,,,0.00,WeatherCatV1.11B39,2013-01-23 10:55:00,
2013-01-23 06:00:00,31.0,13.6,30.26,WNW,292,8.0,9.0,48,0.00,,,0.00,WeatherCatV1.11B39,2013-01-23 11:00:00,
2013-01-23 06:05:00,31.0,14.1,30.26,WNW,298,5.0,7.0,49,0.00,,,0.00,WeatherCatV1.11B39,2013-01-23 11:05:00,
2013-01-23 06:10:00,31.0,13.6,30.26,WSW,250,5.0,9.0,48,0.00,,,0.00,WeatherCatV1.11B39,2013-01-23 11:10:00,
2013-01-23 06:15:00,31.1,13.7,30.26,West,263,3.0,11.0,48,0.00,,,0.00,WeatherCatV1.11B39,2013-01-23 11:15:00,
2013-01-23 06:20:00,31.1,14.2,30.26,SW,221,3.0,5.0,49,0.00,,,0.00,WeatherCatV1.11B39,2013-01-23 11:20:00,
2013-01-23 06:25:00,31.1,14.2,30.26,NW,315,8.0,9.0,49,0.00,,,0.00,WeatherCatV1.11B39,2013-01-23 11:25:00,
2013-01-23 06:30:00,31.1,14.2,30.26,WNW,290,4.0,7.0,49,0.00,,,0.00,WeatherCatV1.11B39,2013-01-23 11:30:00,
2013-01-23 06:35:00,31.1,14.2,30.26,West,261,6.0,6.0,49,0.00,,,0.00,WeatherCatV1.11B39,2013-01-23 11:35:00,
2013-01-23 06:40:00,31.1,14.2,30.26,WNW,292,8.0,9.0,49,0.00,,,0.00,WeatherCatV1.11B39,2013-01-23 11:40:00,
2013-01-23 06:45:00,31.2,15.2,30.27,WSW,252,0.0,3.0,51,0.00,,,0.00,WeatherCatV1.11B39,2013-01-23 11:45:00,
2013-01-23 06:50:00,31.2,14.8,30.27,WSW,257,6.0,12.0,50,0.00,,,0.00,WeatherCatV1.11B39,2013-01-23 11:50:00,
2013-01-23 06:55:00,31.4,14.9,30.27,WNW,286,7.0,13.0,50,0.00,,,0.00,WeatherCatV1.11B39,2013-01-23 11:55:00,
2013-01-23 07:00:00,31.7,14.8,30.28,West,265,8.0,11.0,49,0.00,,,0.00,WeatherCatV1.11B39,2013-01-23 12:00:00,
2013-01-23 07:05:00,31.8,14.8,30.28,West,259,4.0,13.0,49,0.00,,,0.00,WeatherCatV1.11B39,2013-01-23 12:05:00,
2013-01-23 07:10:00,31.8,14.8,30.27,West,277,4.0,10.0,49,0.00,,,0.00,WeatherCatV1.11B39,2013-01-23 12:10:00,
2013-01-23 07:15:00,31.8,14.8,30.27,WNW,291,4.0,8.0,49,0.00,,,0.00,WeatherCatV1.11B39,2013-01-23 12:15:00,
2013-01-23 07:20:00,31.8,14.8,30.28,NW,325,5.0,9.0,49,0.00,,,0.00,WeatherCatV1.11B39,2013-01-23 12:20:00,
2013-01-23 07:25:00,31.9,14.9,30.28,WSW,252,6.0,10.0,49,0.00,,,0.00,WeatherCatV1.11B39,2013-01-23 12:25:00,
2013-01-23 07:29:00,32.0,15.0,30.28,WSW,248,5.0,5.0,49,0.00,,,0.00,WeatherCatV1.11B39,2013-01-23 12:29:00,
2013-01-23 07:34:00,32.0,15.0,30.28,SW,227,2.0,2.0,49,0.00,,,0.00,WeatherCatV1.11B39,2013-01-23 12:34:00,
2013-01-23 07:39:00,31.9,14.9,30.28,West,261,3.0,4.0,49,0.00,,,0.00,WeatherCatV1.11B39,2013-01-23 12:39:00,
2013-01-23 07:44:00,31.9,14.9,30.28,West,260,3.0,7.0,49,0.00,,,0.00,WeatherCatV1.11B39,2013-01-23 12:44:00,
2013-01-23 07:49:00,31.9,14.9,30.28,West,267,6.0,8.0,49,0.00,,,0.00,WeatherCatV1.11B39,2013-01-23 12:49:00,
2013-01-23 07:54:00,31.9,15.4,30.29,WNW,285,12.0,12.0,50,0.00,,,0.00,WeatherCatV1.11B39,2013-01-23 12:54:00,
2013-01-23 07:59:00,32.0,15.5,30.28,West,272,5.0,9.0,50,0.00,,,0.00,WeatherCatV1.11B39,2013-01-23 12:59:00,
2013-01-23 08:04:00,32.1,15.6,30.28,SW,219,4.0,6.0,50,0.00,,,0.00,WeatherCatV1.11B39,2013-01-23 13:04:00,
2013-01-23 08:09:00,32.1,15.6,30.28,NNW,333,2.0,7.0,50,0.00,,,0.00,WeatherCatV1.11B39,2013-01-23 13:09:00,
2013-01-23 08:14:00,32.2,15.7,30.28,WSW,247,6.0,7.0,50,0.00,,,0.00,WeatherCatV1.11B39,2013-01-23 13:14:00,
2013-01-23 08:19:00,32.2,15.7,30.28,WNW,285,5.0,6.0,50,0.00,,,0.00,WeatherCatV1.11B39,2013-01-23 13:19:00,
2013-01-23 08:24:00,32.4,15.9,30.28,WSW,238,3.0,5.0,50,0.00,,,0.00,WeatherCatV1.11B39,2013-01-23 13:24:00,
2013-01-23 08:29:00,32.6,16.0,30.28,SSW,195,3.0,5.0,50,0.00,,,0.00,WeatherCatV1.11B39,2013-01-23 13:29:00,
2013-01-23 08:34:00,32.8,16.2,30.28,West,271,6.0,6.0,50,0.00,,,0.00,WeatherCatV1.11B39,2013-01-23 13:34:00,
2013-01-23 08:39:00,32.9,16.3,30.28,North,5,5.0,8.0,50,0.00,,,0.00,WeatherCatV1.11B39,2013-01-23 13:39:00,
2013-01-23 08:44:00,33.0,16.4,30.27,WSW,244,2.0,7.0,50,0.00,,,0.00,WeatherCatV1.11B39,2013-01-23 13:44:00,
2013-01-23 08:49:00,33.2,16.6,30.27,SW,236,2.0,4.0,50,0.00,,,0.00,WeatherCatV1.11B39,2013-01-23 13:49:00,
2013-01-23 08:54:00,33.5,16.9,30.28,SW,222,4.0,7.0,50,0.00,,,0.00,WeatherCatV1.11B39,2013-01-23 13:54:00,
2013-01-23 08:59:00,33.8,17.2,30.28,WSW,254,8.0,8.0,50,0.00,,,0.00,WeatherCatV1.11B39,2013-01-23 13:59:00,
2013-01-23 09:04:00,34.1,17.4,30.28,SSW,207,0.0,6.0,50,0.00,,,0.00,WeatherCatV1.11B39,2013-01-23 14:04:00,
2013-01-23 09:09:00,34.4,17.2,30.28,West,263,4.0,11.0,49,0.00,,,0.00,WeatherCatV1.11B39,2013-01-23 14:09:00,
2013-01-23 09:14:00,34.7,17.5,30.29,West,269,3.0,13.0,49,0.00,,,0.00,WeatherCatV1.11B39,2013-01-23 14:14:00,
2013-01-23 09:19:00,35.0,17.8,30.29,SSE,161,5.0,5.0,49,0.00,,,0.00,WeatherCatV1.11B39,2013-01-23 14:19:00,
2013-01-23 09:24:00,35.4,18.2,30.29,West,275,5.0,10.0,49,0.00,,,0.00,WeatherCatV1.11B39,2013-01-23 14:24:00,
2013-01-23 09:29:00,35.8,18.5,30.29,West,269,8.0,8.0,49,0.00,,,0.00,WeatherCatV1.11B39,2013-01-23 14:29:00,
2013-01-23 09:34:00,36.1,18.3,30.29,West,269,6.0,14.0,48,0.00,,,0.00,WeatherCatV1.11B39,2013-01-23 14:34:00,
2013-01-23 09:39:00,36.4,18.6,30.29,WSW,247,4.0,8.0,48,0.00,,,0.00,WeatherCatV1.11B39,2013-01-23 14:39:00,
2013-01-23 09:44:00,36.8,18.5,30.29,SW,220,1.0,7.0,47,0.00,,,0.00,WeatherCatV1.11B39,2013-01-23 14:44:00,
2013-01-23 09:49:00,37.1,18.8,30.29,WNW,302,8.0,8.0,47,0.00,,,0.00,WeatherCatV1.11B39,2013-01-23 14:49:00,
2013-01-23 09:54:00,37.4,19.0,30.29,SW,225,4.0,6.0,47,0.00,,,0.00,WeatherCatV1.11B39,2013-01-23 14:54:00,
2013-01-23 09:59:00,37.8,18.9,30.29,SSW,197,11.0,13.0,46,0.00,,,0.00,WeatherCatV1.11B39,2013-01-23 14:59:00,
2013-01-23 10:04:00,38.1,19.7,30.29,SW,224,3.0,7.0,47,0.00,,,0.00,WeatherCatV1.11B39,2013-01-23 15:04:00,
2013-01-23 10:09:00,38.5,20.5,30.30,SSE,164,2.0,5.0,48,0.00,,,0.00,WeatherCatV1.11B39,2013-01-23 15:09:00,
2013-01-23 10:14:00,39.1,20.1,30.30,West,270,13.0,13.0,46,0.00,,,0.00,WeatherCatV1.11B39,2013-01-23 15:14:00,
2013-01-23 10:19:00,39.1,20.1,30.30,West,261,4.0,12.0,46,0.00,,,0.00,WeatherCatV1.11B39,2013-01-23 15:19:00,
2013-01-23 10:24:00,39.3,20.3,30.30,SSW,197,6.0,7.0,46,0.00,,,0.00,WeatherCatV1.11B39,2013-01-23 15:24:00,
2013-01-23 10:29:00,39.4,20.4,30.30,WNW,294,11.0,12.0,46,0.00,,,0.00,WeatherCatV1.11B39,2013-01-23 15:29:00,
2013-01-23 10:34:00,39.6,20.5,30.30,WSW,238,6.0,10.0,46,0.00,,,0.00,WeatherCatV1.11B39,2013-01-23 15:34:00,
2013-01-23 10:39:00,39.8,21.7,30.31,WSW,250,2.0,12.0,48,0.00,,,0.00,WeatherCatV1.11B39,2013-01-23 15:39:00,
2013-01-23 10:44:00,40.1,21.5,30.31,South,169,5.0,6.0,47,0.00,,,0.00,WeatherCatV1.11B39,2013-01-23 15:44:00,
2013-01-23 10:49:00,40.4,21.3,30.31,WSW,258,3.0,8.0,46,0.00,,,0.00,WeatherCatV1.11B39,2013-01-23 15:49:00,
2013-01-23 10:54:00,40.6,22.0,30.31,NW,304,4.0,7.0,47,0.00,,,0.00,WeatherCatV1.11B39,2013-01-23 15:54:00,
2013-01-23 10:59:00,40.9,21.7,30.31,SSW,213,7.0,7.0,46,0.00,,,0.00,WeatherCatV1.11B39,2013-01-23 15:59:00,
2013-01-23 11:04:00,41.2,22.5,30.31,SSE,165,7.0,8.0,47,0.00,,,0.00,WeatherCatV1.11B39,2013-01-23 16:04:00,
2013-01-23 11:09:00,41.5,23.3,30.30,SW,225,1.0,2.0,48,0.00,,,0.00,WeatherCatV1.11B39,2013-01-23 16:09:00,
2013-01-23 11:14:00,41.9,23.7,30.30,SW,221,1.0,10.0,48,0.00,,,0.00,WeatherCatV1.11B39,2013-01-23 16:14:00,
2013-01-23 11:19:00,42.2,23.9,30.30,West,259,5.0,6.0,48,0.00,,,0.00,WeatherCatV1.11B39,2013-01-23 16:19:00,
2013-01-23 11:24:00,42.3,24.5,30.30,SSW,207,7.0,10.0,49,0.00,,,0.00,WeatherCatV1.11B39,2013-01-23 16:24:00,
2013-01-23 11:29:00,42.4,24.6,30.30,WSW,238,3.0,6.0,49,0.00,,,0.00,WeatherCatV1.11B39,2013-01-23 16:29:00,
2013-01-23 11:34:00,42.7,25.4,30.29,West,267,10.0,17.0,50,0.00,,,0.00,WeatherCatV1.11B39,2013-01-23 16:34:00,
2013-01-23 11:39:00,43.0,26.1,30.29,SSW,195,11.0,11.0,51,0.00,,,0.00,WeatherCatV1.11B39,2013-01-23 16:39:00,
2013-01-23 11:44:00,43.1,26.2,30.29,NW,309,4.0,6.0,51,0.00,,,0.00,WeatherCatV1.11B39,2013-01-23 16:44:00,
2013-01-23 11:49:00,43.6,26.2,30.28,West,275,8.0,12.0,50,0.00,,,0.00,WeatherCatV1.11B39,2013-01-23 16:49:00,
2013-01-23 11:54:00,44.0,26.1,30.28,WSW,257,6.0,16.0,49,0.00,,,0.00,WeatherCatV1.11B39,2013-01-23 16:54:00,
2013-01-23 11:59:00,44.1,26.7,30.28,South,183,15.0,15.0,50,0.00,,,0.00,WeatherCatV1.11B39,2013-01-23 16:59:00,
2013-01-23 12:04:00,44.0,27.0,30.28,WNW,295,13.0,14.0,51,0.00,,,0.00,WeatherCatV1.11B39,2013-01-23 17:04:00,
2013-01-23 12:09:00,43.8,26.4,30.27,SW,229,4.0,8.0,50,0.00,,,0.00,WeatherCatV1.11B39,2013-01-23 17:09:00,
2013-01-23 12:14:00,44.1,27.1,30.27,SSW,213,9.0,9.0,51,0.00,,,0.00,WeatherCatV1.11B39,2013-01-23 17:14:00,
2013-01-23 12:19:00,44.3,26.8,30.26,South,186,11.0,11.0,50,0.00,,,0.00,WeatherCatV1.11B39,2013-01-23 17:19:00,
2013-01-23 12:24:00,44.6,27.1,30.26,SW,233,4.0,12.0,50,0.00,,,0.00,WeatherCatV1.11B39,2013-01-23 17:24:00,
2013-01-23 12:28:00,45.1,27.6,30.25,SW,217,4.0,11.0,50,0.00,,,0.00,WeatherCatV1.11B39,2013-01-23 17:28:00,
2013-01-23 12:33:00,45.5,27.5,30.25,West,264,2.0,11.0,49,0.00,,,0.00,WeatherCatV1.11B39,2013-01-23 17:33:00,
2013-01-23 12:38:00,46.1,28.5,30.24,West,275,7.0,8.0,50,0.00,,,0.00,WeatherCatV1.11B39,2013-01-23 17:38:00,
2013-01-23 12:43:00,46.7,29.5,30.24,SE,144,7.0,17.0,51,0.00,,,0.00,WeatherCatV1.11B39,2013-01-23 17:43:00,
2013-01-23 12:48:00,46.5,29.4,30.23,NW,323,8.0,18.0,51,0.00,,,0.00,WeatherCatV1.11B39,2013-01-23 17:48:00,
2013-01-23 12:53:00,46.5,28.9,30.23,ENE,57,5.0,18.0,50,0.00,,,0.00,WeatherCatV1.11B39,2013-01-23 17:53:00,
2013-01-23 12:58:00,46.8,29.2,30.22,West,260,14.0,21.0,50,0.00,,,0.00,WeatherCatV1.11B39,2013-01-23 17:58:00,
2013-01-23 13:03:00,46.6,29.0,30.22,West,260,11.0,19.0,50,0.00,,,0.00,WeatherCatV1.11B39,2013-01-23 18:03:00,
2013-01-23 13:08:00,46.3,29.2,30.22,West,259,18.0,19.0,51,0.00,,,0.00,WeatherCatV1.11B39,2013-01-23 18:08:00,
2013-01-23 13:13:00,46.3,29.2,30.21,SW,229,13.0,20.0,51,0.00,,,0.00,WeatherCatV1.11B39,2013-01-23 18:13:00,
2013-01-23 13:18:00,46.3,29.6,30.21,South,184,7.0,15.0,52,0.00,,,0.00,WeatherCatV1.11B39,2013-01-23 18:18:00,
2013-01-23 13:23:00,46.5,28.9,30.21,WSW,257,17.0,21.0,50,0.00,,,0.00,WeatherCatV1.11B39,2013-01-23 18:23:00,
2013-01-23 13:28:00,46.6,29.5,30.21,WNW,287,15.0,23.0,51,0.00,,,0.00,WeatherCatV1.11B39,2013-01-23 18:28:00,
2013-01-23 13:33:00,46.7,29.5,30.21,WSW,246,20.0,20.0,51,0.00,,,0.00,WeatherCatV1.11B39,2013-01-23 18:33:00,
2013-01-23 13:38:00,46.8,29.6,30.20,West,277,11.0,16.0,51,0.00,,,0.00,WeatherCatV1.11B39,2013-01-23 18:38:00,
2013-01-23 13:43:00,47.2,29.5,30.20,SW,218,12.0,19.0,50,0.00,,,0.00,WeatherCatV1.11B39,2013-01-23 18:43:00,
2013-01-23 13:48:00,46.8,28.7,30.20,NW,312,5.0,14.0,49,0.00,,,0.00,WeatherCatV1.11B39,2013-01-23 18:48:00,
2013-01-23 13:53:00,46.9,28.8,30.20,South,183,12.0,18.0,49,0.00,,,0.00,WeatherCatV1.11B39,2013-01-23 18:53:00,
2013-01-23 13:58:00,47.2,28.5,30.20,SW,219,14.0,23.0,48,0.00,,,0.00,WeatherCatV1.11B39,2013-01-23 18:58:00,
2013-01-23 14:03:00,46.9,28.8,30.20,SSW,200,12.0,18.0,49,0.00,,,0.00,WeatherCatV1.11B39,2013-01-23 19:03:00,
2013-01-23 14:08:00,46.8,28.7,30.19,SSW,195,5.0,9.0,49,0.00,,,0.00,WeatherCatV1.11B39,2013-01-23 19:08:00,
2013-01-23 14:13:00,46.9,28.2,30.19,South,171,13.0,18.0,48,0.00,,,0.00,WeatherCatV1.11B39,2013-01-23 19:13:00,
2013-01-23 14:18:00,46.8,29.2,30.18,SW,232,3.0,11.0,50,0.00,,,0.00,WeatherCatV1.11B39,2013-01-23 19:18:00,
2013-01-23 14:23:00,47.0,28.8,30.19,SSW,197,12.0,13.0,49,0.00,,,0.00,WeatherCatV1.11B39,2013-01-23 19:23:00,
2013-01-23 14:28:00,47.1,28.9,30.19,West,260,13.0,13.0,49,0.00,,,0.00,WeatherCatV1.11B39,2013-01-23 19:28:00,
2013-01-23 14:33:00,46.8,29.2,30.19,SSW,198,4.0,16.0,50,0.00,,,0.00,WeatherCatV1.11B39,2013-01-23 19:33:00,
2013-01-23 14:38:00,46.6,28.5,30.18,South,188,17.0,21.0,49,0.00,,,0.00,WeatherCatV1.11B39,2013-01-23 19:38:00,
2013-01-23 14:43:00,46.8,29.6,30.19,South,169,7.0,11.0,51,0.00,,,0.00,WeatherCatV1.11B39,2013-01-23 19:43:00,
2013-01-23 14:48:00,46.8,28.7,30.19,SW,214,9.0,22.0,49,0.00,,,0.00,WeatherCatV1.11B39,2013-01-23 19:48:00,
2013-01-23 14:53:00,46.8,27.6,30.19,WSW,255,11.0,17.0,47,0.00,,,0.00,WeatherCatV1.11B39,2013-01-23 19:53:00,
2013-01-23 14:58:00,46.9,28.8,30.19,South,174,6.0,11.0,49,0.00,,,0.00,WeatherCatV1.11B39,2013-01-23 19:58:00,
2013-01-23 15:03:00,47.5,27.8,30.18,WNW,284,12.0,15.0,46,0.00,,,0.00,WeatherCatV1.11B39,2013-01-23 20:03:00,
2013-01-23 15:08:00,47.7,27.9,30.18,South,188,11.0,18.0,46,0.00,,,0.00,WeatherCatV1.11B39,2013-01-23 20:08:00,
2013-01-23 15:13:00,47.3,27.6,30.18,South,170,9.0,14.0,46,0.00,,,0.00,WeatherCatV1.11B39,2013-01-23 20:13:00,
2013-01-23 15:18:00,47.5,27.2,30.18,SW,235,11.0,19.0,45,0.00,,,0.00,WeatherCatV1.11B39,2013-01-23 20:18:00,
2013-01-23 15:23:00,47.5,26.7,30.18,West,276,5.0,11.0,44,0.00,,,0.00,WeatherCatV1.11B39,2013-01-23 20:23:00,
2013-01-23 15:28:00,47.4,26.6,30.18,SSW,213,8.0,15.0,44,0.00,,,0.00,WeatherCatV1.11B39,2013-01-23 20:28:00,
2013-01-23 15:33:00,47.5,27.2,30.18,SW,216,5.0,8.0,45,0.00,,,0.00,WeatherCatV1.11B39,2013-01-23 20:33:00,
2013-01-23 15:38:00,47.9,27.0,30.18,West,259,6.0,8.0,44,0.00,,,0.00,WeatherCatV1.11B39,2013-01-23 20:38:00,
2013-01-23 15:43:00,48.1,27.2,30.18,South,184,5.0,14.0,44,0.00,,,0.00,WeatherCatV1.11B39,2013-01-23 20:43:00,
2013-01-23 15:48:00,48.1,28.3,30.17,South,169,9.0,12.0,46,0.00,,,0.00,WeatherCatV1.11B39,2013-01-23 20:48:00,
2013-01-23 15:53:00,47.6,27.9,30.18,SSE,150,9.0,11.0,46,0.00,,,0.00,WeatherCatV1.11B39,2013-01-23 20:53:00,
2013-01-23 15:58:00,47.8,27.5,30.17,South,177,16.0,16.0,45,0.00,,,0.00,WeatherCatV1.11B39,2013-01-23 20:58:00,
2013-01-23 16:03:00,47.3,27.0,30.17,West,259,2.0,16.0,45,0.00,,,0.00,WeatherCatV1.11B39,2013-01-23 21:03:00,
2013-01-23 16:08:00,47.2,27.5,30.17,South,178,7.0,21.0,46,0.00,,,0.00,WeatherCatV1.11B39,2013-01-23 21:08:00,
2013-01-23 16:13:00,47.1,26.9,30.17,South,190,4.0,11.0,45,0.00,,,0.00,WeatherCatV1.11B39,2013-01-23 21:13:00,
2013-01-23 16:18:00,47.2,27.0,30.17,South,171,9.0,16.0,45,0.00,,,0.00,WeatherCatV1.11B39,2013-01-23 21:18:00,
2013-01-23 16:23:00,46.9,27.2,30.17,South,169,12.0,16.0,46,0.00,,,0.00,WeatherCatV1.11B39,2013-01-23 21:23:00,
2013-01-23 16:28:00,46.9,27.2,30.16,South,178,16.0,18.0,46,0.00,,,0.00,WeatherCatV1.11B39,2013-01-23 21:28:00,
2013-01-23 16:33:00,46.9,27.2,30.16,SSE,154,11.0,16.0,46,0.00,,,0.00,WeatherCatV1.11B39,2013-01-23 21:33:00,
2013-01-23 16:38:00,46.8,27.1,30.16,South,181,8.0,15.0,46,0.00,,,0.00,WeatherCatV1.11B39,2013-01-23 21:38:00,
2013-01-23 16:43:00,46.9,27.2,30.16,South,173,10.0,19.0,46,0.00,,,0.00,WeatherCatV1.11B39,2013-01-23 21:43:00,
2013-01-23 16:48:00,46.9,27.2,30.16,South,179,5.0,13.0,46,0.00,,,0.00,WeatherCatV1.11B39,2013-01-23 21:48:00,
2013-01-23 16:53:00,46.8,27.1,30.16,South,184,13.0,13.0,46,0.00,,,0.00,WeatherCatV1.11B39,2013-01-23 21:53:00,
2013-01-23 16:58:00,46.7,27.0,30.17,South,170,7.0,17.0,46,0.00,,,0.00,WeatherCatV1.11B39,2013-01-23 21:58:00,
2013-01-23 17:03:00,46.8,27.1,30.16,South,183,6.0,11.0,46,0.00,,,0.00,WeatherCatV1.11B39,2013-01-23 22:03:00,
2013-01-23 17:08:00,46.8,27.1,30.16,SW,235,2.0,12.0,46,0.00,,,0.00,WeatherCatV1.11B39,2013-01-23 22:08:00,
2013-01-23 17:13:00,46.8,27.1,30.17,SE,142,1.0,13.0,46,0.00,,,0.00,WeatherCatV1.11B39,2013-01-23 22:13:00,
2013-01-23 17:18:00,46.7,27.0,30.17,SSW,193,3.0,11.0,46,0.00,,,0.00,WeatherCatV1.11B39,2013-01-23 22:18:00,
2013-01-23 17:23:00,46.4,26.8,30.17,SW,218,11.0,14.0,46,0.00,,,0.00,WeatherCatV1.11B39,2013-01-23 22:23:00,
2013-01-23 17:28:00,46.1,27.0,30.17,SSW,193,12.0,14.0,47,0.00,,,0.00,WeatherCatV1.11B39,2013-01-23 22:28:00,
2013-01-23 17:33:00,45.8,26.7,30.17,SSW,205,6.0,12.0,47,0.00,,,0.00,WeatherCatV1.11B39,2013-01-23 22:33:00,
2013-01-23 17:38:00,45.5,27.0,30.16,SSW,207,5.0,13.0,48,0.00,,,0.00,WeatherCatV1.11B39,2013-01-23 22:38:00,
2013-01-23 17:42:00,45.3,27.3,30.16,South,190,2.0,5.0,49,0.00,,,0.00,WeatherCatV1.11B39,2013-01-23 22:42:00,
2013-01-23 17:47:00,45.0,27.0,30.16,South,186,3.0,5.0,49,0.00,,,0.00,WeatherCatV1.11B39,2013-01-23 22:47:00,
2013-01-23 17:52:00,44.8,27.3,30.16,South,177,4.0,6.0,50,0.00,,,0.00,WeatherCatV1.11B39,2013-01-23 22:52:00,
2013-01-23 17:57:00,44.6,27.1,30.16,SSW,192,4.0,6.0,50,0.00,,,0.00,WeatherCatV1.11B39,2013-01-23 22:57:00,
2013-01-23 18:02:00,44.5,27.0,30.17,SSW,194,2.0,6.0,50,0.00,,,0.00,WeatherCatV1.11B39,2013-01-23 23:02:00,
2013-01-23 18:07:00,44.4,27.4,30.17,SSW,196,1.0,5.0,51,0.00,,,0.00,WeatherCatV1.11B39,2013-01-23 23:07:00,
2013-01-23 18:12:00,44.3,26.8,30.16,WSW,252,3.0,4.0,50,0.00,,,0.00,WeatherCatV1.11B39,2013-01-23 23:12:00,
2013-01-23 18:17:00,44.3,26.8,30.17,SSW,201,2.0,6.0,50,0.00,,,0.00,WeatherCatV1.11B39,2013-01-23 23:17:00,
2013-01-23 18:22:00,44.3,26.8,30.17,SSW,204,1.0,3.0,50,0.00,,,0.00,WeatherCatV1.11B39,2013-01-23 23:22:00,
2013-01-23 18:27:00,44.3,26.8,30.17,SSW,204,2.0,3.0,50,0.00,,,0.00,WeatherCatV1.11B39,2013-01-23 23:27:00,
2013-01-23 18:32:00,44.1,27.1,30.17,SSW,211,3.0,6.0,51,0.00,,,0.00,WeatherCatV1.11B39,2013-01-23 23:32:00,
2013-01-23 18:37:00,44.0,27.0,30.16,SSW,213,2.0,4.0,51,0.00,,,0.00,WeatherCatV1.11B39,2013-01-23 23:37:00,
2013-01-23 18:42:00,43.8,26.9,30.16,SSW,213,2.0,3.0,51,0.00,,,0.00,WeatherCatV1.11B39,2013-01-23 23:42:00,
2013-01-23 18:47:00,43.6,27.1,30.16,WNW,301,4.0,4.0,52,0.00,,,0.00,WeatherCatV1.11B39,2013-01-23 23:47:00,
2013-01-23 18:52:00,43.2,27.2,30.16,WNW,301,5.0,5.0,53,0.00,,,0.00,WeatherCatV1.11B39,2013-01-23 23:52:00,
2013-01-23 18:57:00,42.8,26.9,30.16,WNW,301,2.0,4.0,53,0.00,,,0.00,WeatherCatV1.11B39,2013-01-23 23:57:00,
2013-01-23 19:02:00,42.5,27.0,30.16,WNW,301,4.0,4.0,54,0.00,,,0.00,WeatherCatV1.11B39,2013-01-24 00:02:00,
2013-01-23 19:07:00,42.4,27.4,30.15,WNW,301,2.0,4.0,55,0.00,,,0.00,WeatherCatV1.11B39,2013-01-24 00:07:00,
2013-01-23 19:12:00,42.0,27.0,30.15,WNW,301,1.0,4.0,55,0.00,,,0.00,WeatherCatV1.11B39,2013-01-24 00:12:00,
2013-01-23 19:17:00,41.6,27.5,30.15,WNW,301,1.0,2.0,57,0.00,,,0.00,WeatherCatV1.11B39,2013-01-24 00:17:00,
2013-01-23 19:22:00,41.1,27.5,30.15,WNW,301,1.0,1.0,58,0.00,,,0.00,WeatherCatV1.11B39,2013-01-24 00:22:00,
2013-01-23 19:27:00,40.5,26.9,30.15,WNW,301,2.0,2.0,58,0.00,,,0.00,WeatherCatV1.11B39,2013-01-24 00:27:00,
2013-01-23 19:32:00,40.0,27.3,30.15,WNW,301,1.0,2.0,60,0.00,,,0.00,WeatherCatV1.11B39,2013-01-24 00:32:00,
2013-01-23 19:37:00,39.7,27.0,30.15,WNW,301,1.0,2.0,60,0.00,,,0.00,WeatherCatV1.11B39,2013-01-24 00:37:00,
2013-01-23 19:42:00,39.5,27.2,30.15,WNW,301,0.0,1.0,61,0.00,,,0.00,WeatherCatV1.11B39,2013-01-24 00:42:00,
2013-01-23 19:47:00,39.3,27.0,30.15,WNW,301,0.0,0.0,61,0.00,,,0.00,WeatherCatV1.11B39,2013-01-24 00:47:00,
2013-01-23 19:52:00,39.1,27.2,30.15,WNW,301,0.0,0.0,62,0.00,,,0.00,WeatherCatV1.11B39,2013-01-24 00:52:00,
2013-01-23 19:57:00,38.8,26.9,30.15,WNW,301,2.0,2.0,62,0.00,,,0.00,WeatherCatV1.11B39,2013-01-24 00:57:00,
2013-01-23 20:02:00,38.5,27.8,30.14,WNW,301,0.0,2.0,65,0.00,,,0.00,WeatherCatV1.11B39,2013-01-24 01:02:00,
2013-01-23 20:07:00,38.4,27.7,30.14,WNW,301,2.0,4.0,65,0.00,,,0.00,WeatherCatV1.11B39,2013-01-24 01:07:00,
2013-01-23 20:12:00,38.2,27.9,30.14,WNW,301,1.0,4.0,66,0.00,,,0.00,WeatherCatV1.11B39,2013-01-24 01:12:00,
2013-01-23 20:17:00,38.0,27.3,30.14,WNW,301,4.0,4.0,65,0.00,,,0.00,WeatherCatV1.11B39,2013-01-24 01:17:00,
2013-01-23 20:22:00,37.9,27.6,30.14,WNW,301,2.0,4.0,66,0.00,,,0.00,WeatherCatV1.11B39,2013-01-24 01:22:00,
2013-01-23 20:27:00,38.0,27.7,30.14,WNW,301,2.0,4.0,66,0.00,,,0.00,WeatherCatV1.11B39,2013-01-24 01:27:00,
2013-01-23 20:32:00,37.8,27.8,30.15,WNW,301,1.0,4.0,67,0.00,,,0.00,WeatherCatV1.11B39,2013-01-24 01:32:00,
2013-01-23 20:37:00,37.5,27.2,30.14,WNW,301,0.0,0.0,66,0.00,,,0.00,WeatherCatV1.11B39,2013-01-24 01:37:00,
2013-01-23 20:42:00,37.4,27.5,30.15,WNW,301,0.0,0.0,67,0.00,,,0.00,WeatherCatV1.11B39,2013-01-24 01:42:00,
2013-01-23 20:47:00,37.3,27.7,30.15,WNW,301,0.0,4.0,68,0.00,,,0.00,WeatherCatV1.11B39,2013-01-24 01:47:00,
2013-01-23 20:52:00,37.2,27.6,30.14,WNW,301,0.0,0.0,68,0.00,,,0.00,WeatherCatV1.11B39,2013-01-24 01:52:00,
2013-01-23 20:57:00,37.2,27.6,30.14,WNW,301,1.0,2.0,68,0.00,,,0.00,WeatherCatV1.11B39,2013-01-24 01:57:00,
2013-01-23 21:02:00,37.1,27.5,30.14,WNW,301,2.0,2.0,68,0.00,,,0.00,WeatherCatV1.11B39,2013-01-24 02:02:00,
2013-01-23 21:07:00,37.1,27.5,30.14,WNW,301,0.0,0.0,68,0.00,,,0.00,WeatherCatV1.11B39,2013-01-24 02:07:00,
2013-01-23 21:12:00,37.1,28.2,30.14,WNW,301,2.0,2.0,70,0.00,,,0.00,WeatherCatV1.11B39,2013-01-24 02:12:00,
2013-01-23 21:17:00,37.2,28.0,30.14,WNW,301,2.0,5.0,69,0.00,,,0.00,WeatherCatV1.11B39,2013-01-24 02:17:00,
2013-01-23 21:22:00,37.4,27.8,30.14,WNW,301,0.0,0.0,68,0.00,,,0.00,WeatherCatV1.11B39,2013-01-24 02:22:00,
2013-01-23 21:27:00,37.4,28.2,30.13,WNW,301,0.0,0.0,69,0.00,,,0.00,WeatherCatV1.11B39,2013-01-24 02:27:00,
2013-01-23 21:32:00,37.2,28.0,30.12,WNW,301,0.0,1.0,69,0.00,,,0.00,WeatherCatV1.11B39,2013-01-24 02:32:00,
2013-01-23 21:37:00,36.9,28.4,30.12,WNW,301,2.0,5.0,71,0.00,,,0.00,WeatherCatV1.11B39,2013-01-24 02:37:00,
2013-01-23 21:42:00,36.4,28.2,30.12,WNW,301,0.0,0.0,72,0.00,,,0.00,WeatherCatV1.11B39,2013-01-24 02:42:00,
2013-01-23 21:47:00,36.3,28.2,30.12,WNW,301,1.0,2.0,72,0.00,,,0.00,WeatherCatV1.11B39,2013-01-24 02:47:00,
2013-01-23 21:52:00,36.4,28.2,30.12,WNW,301,0.0,0.0,72,0.00,,,0.00,WeatherCatV1.11B39,2013-01-24 02:52:00,
2013-01-23 21:57:00,36.2,28.4,30.12,WNW,301,0.0,4.0,73,0.00,,,0.00,WeatherCatV1.11B39,2013-01-24 02:57:00,
2013-01-23 22:02:00,36.4,28.9,30.12,WNW,301,0.0,2.0,74,0.00,,,0.00,WeatherCatV1.11B39,2013-01-24 03:02:00,
2013-01-23 22:07:00,36.8,29.0,30.13,WNW,301,0.0,0.0,73,0.00,,,0.00,WeatherCatV1.11B39,2013-01-24 03:07:00,
2013-01-23 22:12:00,36.6,28.8,30.12,WNW,301,0.0,2.0,73,0.00,,,0.00,WeatherCatV1.11B39,2013-01-24 03:12:00,
2013-01-23 22:17:00,36.5,29.0,30.12,WNW,301,0.0,0.0,74,0.00,,,0.00,WeatherCatV1.11B39,2013-01-24 03:17:00,
2013-01-23 22:22:00,36.5,29.0,30.12,WNW,301,0.0,0.0,74,0.00,,,0.00,WeatherCatV1.11B39,2013-01-24 03:22:00,
2013-01-23 22:27:00,36.4,28.9,30.12,WNW,301,0.0,4.0,74,0.00,,,0.00,WeatherCatV1.11B39,2013-01-24 03:27:00,
2013-01-23 22:32:00,36.2,29.1,30.12,WNW,301,1.0,1.0,75,0.00,,,0.00,WeatherCatV1.11B39,2013-01-24 03:32:00,
2013-01-23 22:37:00,36.2,29.1,30.12,WNW,301,0.0,1.0,75,0.00,,,0.00,WeatherCatV1.11B39,2013-01-24 03:37:00,
2013-01-23 22:42:00,36.0,29.2,30.12,WNW,301,0.0,0.0,76,0.00,,,0.00,WeatherCatV1.11B39,2013-01-24 03:42:00,
2013-01-23 22:46:00,35.7,29.2,30.12,WNW,301,0.0,4.0,77,0.00,,,0.00,WeatherCatV1.11B39,2013-01-24 03:46:00,
2013-01-23 22:51:00,35.5,29.3,30.11,WNW,301,0.0,0.0,78,0.00,,,0.00,WeatherCatV1.11B39,2013-01-24 03:51:00,
2013-01-23 22:56:00,35.4,29.2,30.11,WNW,301,2.0,4.0,78,0.00,,,0.00,WeatherCatV1.11B39,2013-01-24 03:56:00,
2013-01-23 23:01:00,35.5,29.6,30.11,WNW,301,2.0,4.0,79,0.00,,,0.00,WeatherCatV1.11B39,2013-01-24 04:01:00,
2013-01-23 23:06:00,35.6,29.7,30.12,WNW,301,2.0,4.0,79,0.00,,,0.00,WeatherCatV1.11B39,2013-01-24 04:06:00,
2013-01-23 23:11:00,36.0,29.8,30.11,WNW,301,1.0,4.0,78,0.00,,,0.00,WeatherCatV1.11B39,2013-01-24 04:11:00,
2013-01-23 23:16:00,36.2,30.3,30.11,WNW,301,2.0,5.0,79,0.00,,,0.00,WeatherCatV1.11B39,2013-01-24 04:16:00,
2013-01-23 23:21:00,36.5,30.3,30.10,WNW,301,2.0,4.0,78,0.00,,,0.00,WeatherCatV1.11B39,2013-01-24 04:21:00,
2013-01-23 23:26:00,36.8,30.9,30.10,NE,55,2.0,5.0,79,0.00,,,0.00,WeatherCatV1.11B39,2013-01-24 04:26:00,
2013-01-23 23:31:00,37.9,32.9,30.10,East,86,1.0,9.0,82,0.00,,,0.00,WeatherCatV1.11B39,2013-01-24 04:31:00,
2013-01-23 23:36:00,39.3,33.7,30.10,South,178,4.0,5.0,80,0.00,,,0.00,WeatherCatV1.11B39,2013-01-24 04:36:00,
2013-01-23 23:41:00,41.1,34.8,30.10,South,174,7.0,7.0,78,0.00,,,0.00,WeatherCatV1.11B39,2013-01-24 04:41:00,
2013-01-23 23:46:00,42.6,35.6,30.10,SW,221,11.0,15.0,76,0.00,,,0.00,WeatherCatV1.11B39,2013-01-24 04:46:00,
2013-01-23 23:51:00,44.2,36.4,30.09,SW,227,8.0,10.0,74,0.00,,,0.00,WeatherCatV1.11B39,2013-01-24 04:51:00,
2013-01-23 23:56:00,45.1,36.6,30.09,West,275,13.0,13.0,72,0.00,,,0.00,WeatherCatV1.11B39,2013-01-24 04:56:00,